Blue Ridge Airport

Jump to: basic info | weather | frequencies | runways | comments

Related pages: nearby airports | nearby navaids | notams | map

Basic information (top)

Codes: KMTV MTV
Location: lon 36.630699, lat -80.018303, elev 941 ft / 287 m msl
Status: small_airport

Weather (top)

Current conditions (rec'd 2014/10/31 06:35Z):

KMTV 310635Z AUTO 00000KT 10SM OVC060 04/04 A3004 RMK AO2 T00360036

Airport forecast for Smith Reynolds Airport 31nm (58km) SSW (rec'd 2014/10/31 06:36Z):

TAF KINT 310532Z 3106/0106 04005KT P6SM FEW060 
     FM311800 VRB04KT P6SM BKN045 BKN150 
     FM010300 05004KT 3SM -RA BKN015 OVC030

Frequencies (top)

Verify before use: may be inaccurate or out of date.

A/D: 124.35 MHz (GREENSBORO APP/DEP)
AWOS: 118.45 MHz (AWOS 3)
CLD: 124.85 MHz (CLNC DEL)
UNIC: 122.7 MHz (CTAF/UNICOM)

Runways (top)

12/30: 5,002 x 100 ft (1,525 x 30 m) — paved — lighted

Latest comments (top)

Runway Cafe: Great little place to eat right next to ... [read]

More... (top)

See also NOTAMs and nearby airports and navaids, or visit the Blue Ridge Airport page at the main OurAirports website..